Time,TemperatureF,DewpointF,PressureIn,WindDirection,WindDirectionDegrees,WindSpeedMPH,WindSpeedGustMPH,Humidity,HourlyPrecipIn,Conditions,Clouds,dailyrainin,SoftwareType,DateUTC
2013-08-03 00:02:00,82.1,70.5,29.92,SSE,160,9.2,9.2,68,0.00,CLR,,0.00,WeatherDisplay:10.37,2013-08-03 05:02:00,
2013-08-03 00:07:00,82.0,70.8,29.92,SSE,166,11.5,11.5,69,0.00,CLR,,0.00,WeatherDisplay:10.37,2013-08-03 05:07:00,
2013-08-03 00:12:00,81.8,70.6,29.92,SSE,153,6.9,6.9,69,0.00,CLR,,0.00,WeatherDisplay:10.37,2013-08-03 05:12:00,
2013-08-03 00:17:00,81.7,71.0,29.92,SSE,156,6.9,6.9,70,0.00,CLR,,0.00,WeatherDisplay:10.37,2013-08-03 05:17:00,
2013-08-03 00:22:00,81.6,70.9,29.92,SSE,156,3.5,3.5,70,0.00,CLR,,0.00,WeatherDisplay:10.37,2013-08-03 05:22:00,
2013-08-03 00:27:00,81.4,71.1,29.92,SSE,157,6.0,6.0,71,0.00,CLR,,0.00,WeatherDisplay:10.37,2013-08-03 05:27:00,
2013-08-03 00:32:00,81.3,71.0,29.92,SSE,156,5.8,5.8,71,0.00,CLR,,0.00,WeatherDisplay:10.37,2013-08-03 05:32:00,
2013-08-03 00:37:00,81.1,70.8,29.92,SSE,157,0.0,0.0,71,0.00,CLR,,0.00,WeatherDisplay:10.37,2013-08-03 05:37:00,
2013-08-03 00:42:00,81.0,71.1,29.93,SSE,157,0.0,0.0,72,0.00,CLR,,0.00,WeatherDisplay:10.37,2013-08-03 05:42:00,
2013-08-03 00:47:00,80.9,71.0,29.92,SSE,156,0.0,0.0,72,0.00,CLR,,0.00,WeatherDisplay:10.37,2013-08-03 05:47:00,
2013-08-03 00:52:00,80.6,71.1,29.93,SSE,155,11.5,11.5,73,0.00,CLR,,0.00,WeatherDisplay:10.37,2013-08-03 05:52:00,
2013-08-03 00:57:00,80.3,71.3,29.93,SSE,153,8.1,8.1,74,0.00,CLR,,0.00,WeatherDisplay:10.37,2013-08-03 05:57:00,
2013-08-03 01:02:00,80.1,71.5,29.93,SSE,163,9.2,9.2,75,0.00,CLR,,0.00,WeatherDisplay:10.37,2013-08-03 06:02:00,
2013-08-03 01:07:00,80.0,71.4,29.93,SSE,159,5.8,5.8,75,0.00,CLR,,0.00,WeatherDisplay:10.37,2013-08-03 06:07:00,
2013-08-03 01:12:00,79.8,71.6,29.93,SSE,151,5.8,5.8,76,0.00,CLR,,0.00,WeatherDisplay:10.37,2013-08-03 06:12:00,
2013-08-03 01:17:00,79.7,71.5,29.93,SSE,161,8.1,8.1,76,0.00,CLR,,0.00,WeatherDisplay:10.37,2013-08-03 06:17:00,
2013-08-03 01:22:00,79.5,71.7,29.93,SSE,153,10.4,10.4,77,0.00,CLR,,0.00,WeatherDisplay:10.37,2013-08-03 06:22:00,
2013-08-03 01:27:00,79.4,71.6,29.93,SSE,155,4.6,4.6,77,0.00,CLR,,0.00,WeatherDisplay:10.37,2013-08-03 06:27:00,
2013-08-03 01:32:00,79.2,71.4,29.93,SSE,155,5.0,5.0,77,0.00,CLR,,0.00,WeatherDisplay:10.37,2013-08-03 06:32:00,
2013-08-03 01:37:00,79.1,71.6,29.93,SSE,148,10.4,10.4,78,0.00,CLR,,0.00,WeatherDisplay:10.37,2013-08-03 06:37:00,
2013-08-03 01:42:00,79.1,71.6,29.93,SSE,149,6.0,6.0,78,0.00,CLR,,0.00,WeatherDisplay:10.37,2013-08-03 06:42:00,
2013-08-03 01:47:00,79.0,71.6,29.93,SSE,157,10.0,10.0,78,0.00,CLR,,0.00,WeatherDisplay:10.37,2013-08-03 06:47:00,
2013-08-03 01:52:00,78.9,71.8,29.93,SSE,159,5.8,5.8,79,0.00,CLR,,0.00,WeatherDisplay:10.37,2013-08-03 06:52:00,
2013-08-03 01:57:00,78.8,71.7,29.92,SSE,160,10.4,10.4,79,0.00,CLR,,0.00,WeatherDisplay:10.37,2013-08-03 06:57:00,
2013-08-03 02:02:00,78.6,71.5,29.93,SSE,158,10.4,10.4,79,0.00,CLR,,0.00,WeatherDisplay:10.37,2013-08-03 07:02:00,
2013-08-03 02:07:00,78.5,71.8,29.93,SSE,159,9.2,9.2,80,0.00,CLR,,0.00,WeatherDisplay:10.37,2013-08-03 07:07:00,
2013-08-03 02:12:00,78.4,71.7,29.92,SSE,160,4.6,4.6,80,0.00,CLR,,0.00,WeatherDisplay:10.37,2013-08-03 07:12:00,
2013-08-03 02:17:00,78.3,71.6,29.93,SSE,160,3.5,3.5,80,0.00,CLR,,0.00,WeatherDisplay:10.37,2013-08-03 07:17:00,
2013-08-03 02:22:00,78.2,71.9,29.93,SSE,160,6.9,6.9,81,0.00,CLR,,0.00,WeatherDisplay:10.37,2013-08-03 07:22:00,
2013-08-03 02:27:00,78.0,71.7,29.92,SSE,159,6.9,6.9,81,0.00,CLR,,0.00,WeatherDisplay:10.37,2013-08-03 07:27:00,
2013-08-03 02:32:00,77.9,71.6,29.92,SSE,159,4.0,4.0,81,0.00,CLR,,0.00,WeatherDisplay:10.37,2013-08-03 07:32:00,
2013-08-03 02:37:00,77.8,71.5,29.92,SSE,159,0.0,0.0,81,0.00,CLR,,0.00,WeatherDisplay:10.37,2013-08-03 07:37:00,
2013-08-03 02:42:00,77.7,71.4,29.92,SSE,161,4.6,4.6,81,0.00,CLR,,0.00,WeatherDisplay:10.37,2013-08-03 07:42:00,
2013-08-03 02:47:00,77.6,71.7,29.92,SSE,161,2.3,2.3,82,0.00,CLR,,0.00,WeatherDisplay:10.37,2013-08-03 07:47:00,
2013-08-03 02:52:00,77.5,71.6,29.92,SSE,161,0.0,0.0,82,0.00,CLR,,0.00,WeatherDisplay:10.37,2013-08-03 07:52:00,
2013-08-03 02:57:00,77.4,71.5,29.92,SSE,161,0.0,0.1,82,0.00,CLR,,0.00,WeatherDisplay:10.37,2013-08-03 07:57:00,
2013-08-03 03:02:00,77.3,71.4,29.92,SSE,162,0.0,0.0,82,0.00,CLR,,0.00,WeatherDisplay:10.37,2013-08-03 08:02:00,
2013-08-03 03:07:00,77.2,71.6,29.91,SSE,162,0.0,0.0,83,0.00,CLR,,0.00,WeatherDisplay:10.37,2013-08-03 08:07:00,
2013-08-03 03:12:00,77.0,71.4,29.92,SSE,161,0.0,0.0,83,0.00,CLR,,0.00,WeatherDisplay:10.37,2013-08-03 08:12:00,
2013-08-03 03:17:00,77.0,71.4,29.92,SSE,161,0.0,0.0,83,0.00,CLR,,0.00,WeatherDisplay:10.37,2013-08-03 08:17:00,
2013-08-03 03:22:00,76.9,71.3,29.92,SSE,162,0.0,0.0,83,0.00,CLR,,0.00,WeatherDisplay:10.37,2013-08-03 08:22:00,
2013-08-03 03:27:00,76.8,71.6,29.92,SSE,162,0.0,0.0,84,0.00,CLR,,0.00,WeatherDisplay:10.37,2013-08-03 08:27:00,
2013-08-03 03:32:00,76.8,71.6,29.92,SSE,162,0.0,0.0,84,0.00,CLR,,0.00,WeatherDisplay:10.37,2013-08-03 08:32:00,
2013-08-03 03:37:00,76.8,71.6,29.92,SSE,161,0.0,0.2,84,0.00,CLR,,0.00,WeatherDisplay:10.37,2013-08-03 08:37:00,
2013-08-03 03:42:00,76.8,71.9,29.92,SSE,163,3.5,3.5,85,0.00,CLR,,0.00,WeatherDisplay:10.37,2013-08-03 08:42:00,
2013-08-03 03:47:00,76.8,71.9,29.92,SSE,163,6.0,6.0,85,0.00,CLR,,0.00,WeatherDisplay:10.37,2013-08-03 08:47:00,
2013-08-03 03:52:00,76.9,72.0,29.92,SSE,163,4.6,4.6,85,0.00,CLR,,0.00,WeatherDisplay:10.37,2013-08-03 08:52:00,
2013-08-03 03:57:00,77.0,72.5,29.92,SSE,165,4.6,4.6,86,0.00,CLR,,0.00,WeatherDisplay:10.37,2013-08-03 08:57:00,
2013-08-03 04:02:00,77.0,72.5,29.92,SSE,165,6.0,6.0,86,0.00,CLR,,0.00,WeatherDisplay:10.37,2013-08-03 09:02:00,
2013-08-03 04:07:00,77.1,72.6,29.92,South,169,4.6,4.6,86,0.00,CLR,,0.00,WeatherDisplay:10.37,2013-08-03 09:07:00,
2013-08-03 04:12:00,77.2,72.7,29.92,South,171,5.8,5.8,86,0.00,CLR,,0.00,WeatherDisplay:10.37,2013-08-03 09:12:00,
2013-08-03 04:17:00,77.3,72.8,29.92,South,172,9.0,9.0,86,0.00,CLR,,0.00,WeatherDisplay:10.37,2013-08-03 09:17:00,
2013-08-03 04:22:00,77.3,72.8,29.92,South,179,9.2,9.2,86,0.00,CLR,,0.00,WeatherDisplay:10.37,2013-08-03 09:22:00,
2013-08-03 04:27:00,77.3,72.4,29.92,South,180,4.6,4.6,85,0.00,CLR,,0.00,WeatherDisplay:10.37,2013-08-03 09:27:00,
2013-08-03 04:32:00,77.4,72.9,29.92,South,180,8.0,8.0,86,0.00,CLR,,0.00,WeatherDisplay:10.37,2013-08-03 09:32:00,
2013-08-03 04:37:00,77.4,72.9,29.92,South,181,5.8,5.8,86,0.00,CLR,,0.00,WeatherDisplay:10.37,2013-08-03 09:37:00,
2013-08-03 04:42:00,77.4,72.9,29.92,South,179,6.0,6.0,86,0.00,CLR,,0.00,WeatherDisplay:10.37,2013-08-03 09:42:00,
2013-08-03 04:47:00,77.3,72.4,29.92,South,177,9.2,9.2,85,0.00,CLR,,0.00,WeatherDisplay:10.37,2013-08-03 09:47:00,
2013-08-03 04:52:00,77.3,72.8,29.92,South,176,4.6,4.6,86,0.00,CLR,,0.00,WeatherDisplay:10.37,2013-08-03 09:52:00,
2013-08-03 04:57:00,77.2,72.7,29.92,South,176,6.0,6.0,86,0.00,CLR,,0.00,WeatherDisplay:10.37,2013-08-03 09:57:00,
2013-08-03 05:02:00,77.1,72.6,29.92,South,176,8.1,8.1,86,0.00,CLR,,0.00,WeatherDisplay:10.37,2013-08-03 10:02:00,
2013-08-03 05:07:00,77.1,72.6,29.92,South,176,5.0,5.0,86,0.00,CLR,,0.00,WeatherDisplay:10.37,2013-08-03 10:07:00,
2013-08-03 05:12:00,77.1,72.6,29.92,South,175,3.5,3.5,86,0.00,CLR,,0.00,WeatherDisplay:10.37,2013-08-03 10:12:00,
2013-08-03 05:17:00,77.0,72.5,29.92,South,175,0.0,0.0,86,0.00,CLR,,0.00,WeatherDisplay:10.37,2013-08-03 10:17:00,
2013-08-03 05:22:00,77.0,72.5,29.92,South,175,0.0,0.0,86,0.00,CLR,,0.00,WeatherDisplay:10.37,2013-08-03 10:22:00,
2013-08-03 05:27:00,77.0,72.8,29.92,South,175,0.0,0.0,87,0.00,CLR,,0.00,WeatherDisplay:10.37,2013-08-03 10:27:00,
2013-08-03 05:32:00,76.9,72.7,29.93,South,175,3.5,3.5,87,0.00,CLR,,0.00,WeatherDisplay:10.37,2013-08-03 10:32:00,
2013-08-03 05:37:00,76.9,72.7,29.93,South,175,0.0,0.0,87,0.00,CLR,,0.00,WeatherDisplay:10.37,2013-08-03 10:37:00,
2013-08-03 05:42:00,76.9,72.7,29.93,South,175,0.0,0.0,87,0.00,CLR,,0.00,WeatherDisplay:10.37,2013-08-03 10:42:00,
2013-08-03 05:47:00,76.8,72.6,29.93,South,175,4.0,4.0,87,0.00,CLR,,0.00,WeatherDisplay:10.37,2013-08-03 10:47:00,
2013-08-03 05:52:00,76.8,72.6,29.93,South,178,6.9,6.9,87,0.00,CLR,,0.00,WeatherDisplay:10.37,2013-08-03 10:52:00,
2013-08-03 05:57:00,76.7,72.2,29.93,South,182,7.0,7.0,86,0.00,CLR,,0.00,WeatherDisplay:10.37,2013-08-03 10:57:00,
2013-08-03 06:02:00,76.6,72.1,29.93,SSW,194,10.4,10.4,86,0.00,CLR,,0.00,WeatherDisplay:10.37,2013-08-03 11:02:00,
2013-08-03 06:07:00,76.5,72.0,29.93,SSW,198,10.4,10.4,86,0.00,CLR,,0.00,WeatherDisplay:10.37,2013-08-03 11:07:00,
2013-08-03 06:12:00,76.4,71.9,29.93,SSW,192,10.4,10.4,86,0.00,CLR,,0.00,WeatherDisplay:10.37,2013-08-03 11:12:00,
2013-08-03 06:17:00,76.4,71.6,29.93,SSW,192,9.2,9.2,85,0.00,CLR,,0.00,WeatherDisplay:10.37,2013-08-03 11:17:00,
2013-08-03 06:22:00,76.3,71.5,29.93,South,187,6.9,6.9,85,0.00,CLR,,0.00,WeatherDisplay:10.37,2013-08-03 11:22:00,
2013-08-03 06:27:00,76.2,71.4,29.93,South,173,11.5,11.5,85,0.00,CLR,,0.00,WeatherDisplay:10.37,2013-08-03 11:27:00,
2013-08-03 06:32:00,76.1,71.6,29.93,South,177,8.1,8.1,86,0.00,CLR,,0.00,WeatherDisplay:10.37,2013-08-03 11:32:00,
2013-08-03 06:37:00,76.0,71.5,29.93,South,178,4.6,4.6,86,0.00,CLR,,0.00,WeatherDisplay:10.37,2013-08-03 11:37:00,
2013-08-03 06:42:00,76.0,71.5,29.93,South,179,5.8,5.8,86,0.00,CLR,,0.00,WeatherDisplay:10.37,2013-08-03 11:42:00,
2013-08-03 06:48:00,75.9,71.4,29.93,South,180,5.8,5.8,86,0.00,CLR,,0.00,WeatherDisplay:10.37,2013-08-03 11:48:00,
2013-08-03 06:53:00,75.8,71.3,29.93,South,180,6.9,6.9,86,0.00,CLR,,0.00,WeatherDisplay:10.37,2013-08-03 11:53:00,
2013-08-03 06:58:00,75.7,71.2,29.93,South,180,1.2,0.0,86,0.00,CLR,,0.00,WeatherDisplay:10.37,2013-08-03 11:58:00,
2013-08-03 07:03:00,75.6,71.5,29.93,South,180,0.0,0.0,87,0.00,CLR,,0.00,WeatherDisplay:10.37,2013-08-03 12:03:00,
2013-08-03 07:08:00,75.6,71.5,29.93,South,180,3.5,3.5,87,0.00,CLR,,0.00,WeatherDisplay:10.37,2013-08-03 12:08:00,
2013-08-03 07:13:00,75.6,71.5,29.93,South,180,3.5,3.5,87,0.00,CLR,,0.00,WeatherDisplay:10.37,2013-08-03 12:13:00,
2013-08-03 07:18:00,75.6,71.8,29.93,South,180,0.0,0.0,88,0.00,CLR,,0.00,WeatherDisplay:10.37,2013-08-03 12:18:00,
2013-08-03 07:23:00,75.6,71.8,29.93,South,180,0.0,0.0,88,0.00,CLR,,0.00,WeatherDisplay:10.37,2013-08-03 12:23:00,
2013-08-03 07:28:00,75.6,71.8,29.93,South,180,0.0,0.0,88,0.00,CLR,,0.00,WeatherDisplay:10.37,2013-08-03 12:28:00,
2013-08-03 07:33:00,75.6,71.8,29.93,South,180,0.0,0.0,88,0.00,CLR,,0.00,WeatherDisplay:10.37,2013-08-03 12:33:00,
2013-08-03 07:38:00,75.7,71.9,29.93,South,180,0.0,0.0,88,0.00,CLR,,0.00,WeatherDisplay:10.37,2013-08-03 12:38:00,
2013-08-03 07:43:00,75.8,72.0,29.93,South,180,0.0,0.0,88,0.00,CLR,,0.00,WeatherDisplay:10.37,2013-08-03 12:43:00,
2013-08-03 07:48:00,75.9,72.1,29.93,South,180,0.0,0.0,88,0.00,CLR,,0.00,WeatherDisplay:10.37,2013-08-03 12:48:00,
2013-08-03 07:53:00,76.1,72.3,29.93,South,180,6.0,6.0,88,0.00,CLR,,0.00,WeatherDisplay:10.37,2013-08-03 12:53:00,
2013-08-03 07:58:00,76.2,72.4,29.93,South,180,4.6,4.6,88,0.00,CLR,,0.00,WeatherDisplay:10.37,2013-08-03 12:58:00,
2013-08-03 08:03:00,76.2,72.0,29.93,South,185,10.0,10.0,87,0.00,CLR,,0.00,WeatherDisplay:10.37,2013-08-03 13:03:00,
2013-08-03 08:08:00,76.2,72.0,29.93,South,188,4.6,4.6,87,0.00,CLR,,0.00,WeatherDisplay:10.37,2013-08-03 13:08:00,
2013-08-03 08:13:00,76.3,72.1,29.93,SSW,192,3.5,3.5,87,0.00,CLR,,0.00,WeatherDisplay:10.37,2013-08-03 13:13:00,
2013-08-03 08:18:00,76.4,72.2,29.93,SSW,194,3.5,0.0,87,0.00,CLR,,0.00,WeatherDisplay:10.37,2013-08-03 13:18:00,
2013-08-03 08:23:00,76.5,72.3,29.93,SSW,192,11.5,11.5,87,0.00,CLR,,0.00,WeatherDisplay:10.37,2013-08-03 13:23:00,
2013-08-03 08:28:00,76.8,72.6,29.93,SSW,197,10.4,10.4,87,0.00,CLR,,0.00,WeatherDisplay:10.37,2013-08-03 13:28:00,
2013-08-03 08:33:00,77.1,72.2,29.94,South,174,11.5,11.5,85,0.00,CLR,,0.00,WeatherDisplay:10.37,2013-08-03 13:33:00,
2013-08-03 08:38:00,77.5,71.9,29.94,SSW,196,11.5,11.5,83,0.00,CLR,,0.00,WeatherDisplay:10.37,2013-08-03 13:38:00,
2013-08-03 08:43:00,77.8,72.2,29.94,South,180,10.4,10.4,83,0.00,CLR,,0.00,WeatherDisplay:10.37,2013-08-03 13:43:00,
2013-08-03 08:48:00,78.2,71.9,29.94,SSW,199,9.0,9.0,81,0.00,CLR,,0.00,WeatherDisplay:10.37,2013-08-03 13:48:00,
2013-08-03 08:53:00,78.4,71.7,29.94,SSW,192,15.0,15.0,80,0.00,CLR,,0.00,WeatherDisplay:10.37,2013-08-03 13:53:00,
2013-08-03 08:58:00,78.8,71.7,29.94,South,189,6.9,6.9,79,0.00,CLR,,0.00,WeatherDisplay:10.37,2013-08-03 13:58:00,
2013-08-03 09:03:00,79.1,70.9,29.94,SW,217,10.4,10.4,76,0.00,CLR,,0.00,WeatherDisplay:10.37,2013-08-03 14:03:00,
2013-08-03 09:08:00,79.3,70.7,29.95,South,191,5.8,5.8,75,0.00,CLR,,0.00,WeatherDisplay:10.37,2013-08-03 14:08:00,
2013-08-03 09:13:00,79.6,70.6,29.95,SSW,199,10.4,10.4,74,0.00,CLR,,0.00,WeatherDisplay:10.37,2013-08-03 14:13:00,
2013-08-03 09:18:00,79.7,69.9,29.95,SSW,194,10.0,10.0,72,0.00,CLR,,0.00,WeatherDisplay:10.37,2013-08-03 14:18:00,
2013-08-03 09:23:00,79.9,70.1,29.95,SSW,199,8.1,8.1,72,0.00,CLR,,0.00,WeatherDisplay:10.37,2013-08-03 14:23:00,
2013-08-03 09:28:00,80.2,69.9,29.95,SSW,209,9.0,9.0,71,0.00,CLR,,0.00,WeatherDisplay:10.37,2013-08-03 14:28:00,
2013-08-03 09:33:00,80.4,69.7,29.95,SSW,198,13.8,13.8,70,0.00,CLR,,0.00,WeatherDisplay:10.37,2013-08-03 14:33:00,
2013-08-03 09:38:00,80.4,68.9,29.95,SSW,202,14.0,14.0,68,0.00,CLR,,0.00,WeatherDisplay:10.37,2013-08-03 14:38:00,
2013-08-03 09:43:00,80.6,68.6,29.95,SSW,202,11.5,11.5,67,0.00,CLR,,0.00,WeatherDisplay:10.37,2013-08-03 14:43:00,
2013-08-03 09:48:00,80.9,68.0,29.95,South,184,16.0,16.0,65,0.00,CLR,,0.00,WeatherDisplay:10.37,2013-08-03 14:48:00,
2013-08-03 09:53:00,81.3,68.0,29.95,SSW,192,14.0,14.0,64,0.00,CLR,,0.00,WeatherDisplay:10.37,2013-08-03 14:53:00,
2013-08-03 09:58:00,81.7,67.9,29.95,SSW,205,17.3,17.3,63,0.00,CLR,,0.00,WeatherDisplay:10.37,2013-08-03 14:58:00,
2013-08-03 10:03:00,81.8,68.0,29.95,South,180,17.3,17.3,63,0.00,CLR,,0.00,WeatherDisplay:10.37,2013-08-03 15:03:00,
2013-08-03 10:08:00,81.9,68.5,29.95,South,181,16.1,16.1,64,0.00,CLR,,0.00,WeatherDisplay:10.37,2013-08-03 15:08:00,
2013-08-03 10:13:00,82.1,69.2,29.95,SSW,205,13.8,13.8,65,0.00,CLR,,0.00,WeatherDisplay:10.37,2013-08-03 15:13:00,
2013-08-03 10:18:00,82.2,68.8,29.95,SSW,192,15.0,15.0,64,0.00,CLR,,0.00,WeatherDisplay:10.37,2013-08-03 15:18:00,
2013-08-03 10:23:00,82.3,69.4,29.95,South,186,9.2,9.2,65,0.00,CLR,,0.00,WeatherDisplay:10.37,2013-08-03 15:23:00,
2013-08-03 10:28:00,82.7,68.8,29.95,SSW,199,15.0,15.0,63,0.00,CLR,,0.00,WeatherDisplay:10.37,2013-08-03 15:28:00,
2013-08-03 10:33:00,82.8,68.9,29.95,SSW,207,15.0,15.0,63,0.00,CLR,,0.00,WeatherDisplay:10.37,2013-08-03 15:33:00,
2013-08-03 10:38:00,83.0,67.7,29.95,SSW,195,16.1,16.1,60,0.00,CLR,,0.00,WeatherDisplay:10.37,2013-08-03 15:38:00,
2013-08-03 10:43:00,83.1,68.3,29.95,SW,223,15.0,15.0,61,0.00,CLR,,0.00,WeatherDisplay:10.37,2013-08-03 15:43:00,
2013-08-03 10:48:00,83.6,68.7,29.95,South,191,12.7,12.7,61,0.00,CLR,,0.00,WeatherDisplay:10.37,2013-08-03 15:48:00,
2013-08-03 10:53:00,83.7,68.8,29.95,SW,227,15.0,15.0,61,0.00,CLR,,0.00,WeatherDisplay:10.37,2013-08-03 15:53:00,
2013-08-03 10:58:00,83.5,69.1,29.95,SW,234,13.8,13.8,62,0.00,CLR,,0.00,WeatherDisplay:10.37,2013-08-03 15:58:00,
2013-08-03 11:03:00,83.7,68.8,29.96,South,191,11.5,11.5,61,0.00,CLR,,0.00,WeatherDisplay:10.37,2013-08-03 16:03:00,
2013-08-03 11:08:00,84.1,69.7,29.96,SSW,196,11.5,11.5,62,0.00,CLR,,0.00,WeatherDisplay:10.37,2013-08-03 16:08:00,
2013-08-03 11:13:00,84.6,68.7,29.96,South,171,17.3,17.3,59,0.00,CLR,,0.00,WeatherDisplay:10.37,2013-08-03 16:13:00,
2013-08-03 11:18:00,84.7,69.3,29.96,SSW,194,13.0,13.0,60,0.00,CLR,,0.00,WeatherDisplay:10.37,2013-08-03 16:18:00,
2013-08-03 11:23:00,84.9,69.0,29.96,SW,215,16.1,16.1,59,0.00,CLR,,0.00,WeatherDisplay:10.37,2013-08-03 16:23:00,
2013-08-03 11:28:00,84.9,68.5,29.96,SSW,196,9.2,9.2,58,0.00,CLR,,0.00,WeatherDisplay:10.37,2013-08-03 16:28:00,
2013-08-03 11:33:00,85.2,68.8,29.96,SSW,211,15.0,15.0,58,0.00,CLR,,0.00,WeatherDisplay:10.37,2013-08-03 16:33:00,
2013-08-03 11:38:00,85.5,68.0,29.96,SSW,203,13.8,13.8,56,0.00,CLR,,0.00,WeatherDisplay:10.37,2013-08-03 16:38:00,
2013-08-03 11:43:00,85.7,67.7,29.95,SSW,210,11.5,11.5,55,0.00,CLR,,0.00,WeatherDisplay:10.37,2013-08-03 16:43:00,
2013-08-03 11:48:00,85.9,67.9,29.95,SSE,165,17.3,17.3,55,0.00,CLR,,0.00,WeatherDisplay:10.37,2013-08-03 16:48:00,
2013-08-03 11:53:00,86.2,68.1,29.95,SSE,167,8.1,8.1,55,0.00,CLR,,0.00,WeatherDisplay:10.37,2013-08-03 16:53:00,
2013-08-03 11:58:00,86.8,68.7,29.95,South,186,12.7,12.7,55,0.00,CLR,,0.00,WeatherDisplay:10.37,2013-08-03 16:58:00,
2013-08-03 12:03:00,87.4,67.6,29.95,SSW,192,7.0,7.0,52,0.00,CLR,,0.00,WeatherDisplay:10.37,2013-08-03 17:03:00,
2013-08-03 12:08:00,87.6,68.4,29.95,South,175,11.5,11.5,53,0.00,CLR,,0.00,WeatherDisplay:10.37,2013-08-03 17:08:00,
2013-08-03 12:13:00,87.8,68.0,29.95,South,178,12.7,12.7,52,0.00,CLR,,0.00,WeatherDisplay:10.37,2013-08-03 17:13:00,
2013-08-03 12:18:00,88.1,68.3,29.95,SSE,165,11.0,11.0,52,0.00,CLR,,0.00,WeatherDisplay:10.37,2013-08-03 17:18:00,
2013-08-03 12:23:00,88.3,67.3,29.95,SSE,154,8.1,8.1,50,0.00,CLR,,0.00,WeatherDisplay:10.37,2013-08-03 17:23:00,
2013-08-03 12:28:00,88.6,67.0,29.95,SSE,167,11.5,11.5,49,0.00,CLR,,0.00,WeatherDisplay:10.37,2013-08-03 17:28:00,
2013-08-03 12:33:00,88.6,67.0,29.95,South,174,9.0,9.0,49,0.00,CLR,,0.00,WeatherDisplay:10.37,2013-08-03 17:33:00,
2013-08-03 12:38:00,88.8,66.6,29.95,SSW,206,11.5,11.5,48,0.00,CLR,,0.00,WeatherDisplay:10.37,2013-08-03 17:38:00,
2013-08-03 12:43:00,88.9,66.7,29.94,SW,221,13.8,13.8,48,0.00,CLR,,0.00,WeatherDisplay:10.37,2013-08-03 17:43:00,
2013-08-03 12:48:00,88.9,67.3,29.94,SSW,209,7.0,7.0,49,0.00,CLR,,0.00,WeatherDisplay:10.37,2013-08-03 17:48:00,
2013-08-03 12:53:00,89.2,67.5,29.94,SSE,160,11.5,11.5,49,0.00,CLR,,0.00,WeatherDisplay:10.37,2013-08-03 17:53:00,
2013-08-03 12:58:00,90.1,67.8,29.94,SSE,156,11.0,11.0,48,0.00,CLR,,0.00,WeatherDisplay:10.37,2013-08-03 17:58:00,
2013-08-03 13:03:00,90.3,66.7,29.94,SSE,168,15.0,15.0,46,0.00,CLR,,0.00,WeatherDisplay:10.37,2013-08-03 18:03:00,
2013-08-03 13:08:00,90.4,67.4,29.94,SSE,157,5.8,5.8,47,0.00,CLR,,0.00,WeatherDisplay:10.37,2013-08-03 18:08:00,
2013-08-03 13:13:00,90.6,66.3,29.94,SSE,152,11.5,11.5,45,0.00,CLR,,0.00,WeatherDisplay:10.37,2013-08-03 18:13:00,
2013-08-03 13:18:00,90.8,67.2,29.94,South,177,12.7,12.7,46,0.00,CLR,,0.00,WeatherDisplay:10.37,2013-08-03 18:18:00,
2013-08-03 13:23:00,90.9,66.6,29.94,South,169,20.0,20.0,45,0.00,CLR,,0.00,WeatherDisplay:10.37,2013-08-03 18:23:00,
2013-08-03 13:28:00,91.2,66.2,29.94,South,169,9.2,9.2,44,0.00,CLR,,0.00,WeatherDisplay:10.37,2013-08-03 18:28:00,
2013-08-03 13:33:00,91.4,65.8,29.93,South,188,16.0,16.0,43,0.00,CLR,,0.00,WeatherDisplay:10.37,2013-08-03 18:33:00,
2013-08-03 13:38:00,91.4,66.4,29.93,South,178,15.0,15.0,44,0.00,CLR,,0.00,WeatherDisplay:10.37,2013-08-03 18:38:00,
2013-08-03 13:43:00,91.7,66.0,29.93,SSE,155,11.0,11.0,43,0.00,CLR,,0.00,WeatherDisplay:10.37,2013-08-03 18:43:00,
2013-08-03 13:48:00,92.3,65.2,29.93,South,173,15.0,15.0,41,0.00,CLR,,0.00,WeatherDisplay:10.37,2013-08-03 18:48:00,
2013-08-03 13:53:00,92.3,66.6,29.92,SSW,203,12.7,12.7,43,0.00,CLR,,0.00,WeatherDisplay:10.37,2013-08-03 18:53:00,
2013-08-03 13:58:00,92.4,66.7,29.92,SSE,149,14.0,14.0,43,0.00,CLR,,0.00,WeatherDisplay:10.37,2013-08-03 18:58:00,
2013-08-03 14:03:00,92.5,64.7,29.92,SSE,157,13.0,13.0,40,0.00,CLR,,0.00,WeatherDisplay:10.37,2013-08-03 19:03:00,
2013-08-03 14:08:00,92.6,65.5,29.92,SSE,160,6.9,6.9,41,0.00,CLR,,0.00,WeatherDisplay:10.37,2013-08-03 19:08:00,
2013-08-03 14:13:00,92.9,66.4,29.92,South,176,9.2,9.2,42,0.00,CLR,,0.00,WeatherDisplay:10.37,2013-08-03 19:13:00,
2013-08-03 14:18:00,93.0,65.8,29.92,SE,144,17.3,17.3,41,0.00,CLR,,0.00,WeatherDisplay:10.37,2013-08-03 19:18:00,
2013-08-03 14:23:00,93.1,65.9,29.91,SSE,166,10.4,10.4,41,0.00,CLR,,0.00,WeatherDisplay:10.37,2013-08-03 19:23:00,
2013-08-03 14:28:00,93.2,67.4,29.91,South,174,13.8,13.8,43,0.00,CLR,,0.00,WeatherDisplay:10.37,2013-08-03 19:28:00,
2013-08-03 14:33:00,93.2,66.7,29.91,SSW,198,17.3,17.3,42,0.00,CLR,,0.00,WeatherDisplay:10.37,2013-08-03 19:33:00,
2013-08-03 14:38:00,93.3,66.8,29.91,South,182,5.8,6.5,42,0.00,CLR,,0.00,WeatherDisplay:10.37,2013-08-03 19:38:00,
2013-08-03 14:43:00,93.8,65.8,29.91,ESE,113,6.9,6.9,40,0.00,CLR,,0.00,WeatherDisplay:10.37,2013-08-03 19:43:00,
2013-08-03 14:48:00,94.2,66.2,29.90,SSE,156,13.0,13.0,40,0.00,CLR,,0.00,WeatherDisplay:10.37,2013-08-03 19:48:00,
2013-08-03 14:53:00,94.1,66.1,29.90,SSW,200,18.4,18.4,40,0.00,CLR,,0.00,WeatherDisplay:10.37,2013-08-03 19:53:00,
2013-08-03 14:58:00,94.4,65.6,29.90,SE,142,6.9,6.9,39,0.00,CLR,,0.00,WeatherDisplay:10.37,2013-08-03 19:58:00,
2013-08-03 15:03:00,94.7,65.9,29.89,SE,146,14.0,14.0,39,0.00,CLR,,0.00,WeatherDisplay:10.37,2013-08-03 20:03:00,
2013-08-03 15:08:00,94.8,66.0,29.89,SSE,164,5.8,5.8,39,0.00,CLR,,0.00,WeatherDisplay:10.37,2013-08-03 20:08:00,
2013-08-03 15:13:00,95.0,66.9,29.89,SSE,159,9.2,9.2,40,0.00,CLR,,0.00,WeatherDisplay:10.37,2013-08-03 20:13:00,
2013-08-03 15:18:00,95.2,66.3,29.89,SW,226,13.8,13.8,39,0.00,CLR,,0.00,WeatherDisplay:10.37,2013-08-03 20:18:00,
2013-08-03 15:23:00,95.2,66.3,29.89,SSE,161,3.5,3.5,39,0.00,CLR,,0.00,WeatherDisplay:10.37,2013-08-03 20:23:00,
2013-08-03 15:28:00,95.1,66.2,29.89,SE,133,11.5,11.5,39,0.00,CLR,,0.00,WeatherDisplay:10.37,2013-08-03 20:28:00,
2013-08-03 15:33:00,95.5,66.6,29.89,SSE,164,13.8,13.8,39,0.00,CLR,,0.00,WeatherDisplay:10.37,2013-08-03 20:33:00,
2013-08-03 15:38:00,95.7,66.8,29.89,South,182,6.9,6.9,39,0.00,CLR,,0.00,WeatherDisplay:10.37,2013-08-03 20:38:00,
2013-08-03 15:43:00,96.0,67.0,29.89,SSE,152,11.5,11.5,39,0.00,CLR,,0.00,WeatherDisplay:10.37,2013-08-03 20:43:00,
2013-08-03 15:48:00,96.1,65.6,29.88,SSW,207,13.0,13.0,37,0.00,CLR,,0.00,WeatherDisplay:10.37,2013-08-03 20:48:00,
2013-08-03 15:53:00,96.1,65.6,29.88,SE,142,15.0,15.0,37,0.00,CLR,,0.00,WeatherDisplay:10.37,2013-08-03 20:53:00,
2013-08-03 15:58:00,95.9,66.2,29.88,SE,134,12.7,12.7,38,0.00,CLR,,0.00,WeatherDisplay:10.37,2013-08-03 20:58:00,
2013-08-03 16:03:00,96.2,66.5,29.87,SSW,213,6.9,6.9,38,0.00,CLR,,0.00,WeatherDisplay:10.37,2013-08-03 21:03:00,
2013-08-03 16:08:00,96.4,66.7,29.87,South,185,6.9,6.9,38,0.00,CLR,,0.00,WeatherDisplay:10.37,2013-08-03 21:08:00,
2013-08-03 16:13:00,96.6,66.8,29.87,SSE,155,5.8,6.4,38,0.00,CLR,,0.00,WeatherDisplay:10.37,2013-08-03 21:13:00,
2013-08-03 16:18:00,96.5,66.7,29.87,South,172,9.0,9.0,38,0.00,CLR,,0.00,WeatherDisplay:10.37,2013-08-03 21:18:00,
2013-08-03 16:23:00,96.4,67.4,29.87,East,99,6.9,6.9,39,0.00,CLR,,0.00,WeatherDisplay:10.37,2013-08-03 21:23:00,
2013-08-03 16:28:00,96.6,66.8,29.87,SSW,206,15.0,15.0,38,0.00,CLR,,0.00,WeatherDisplay:10.37,2013-08-03 21:28:00,
2013-08-03 16:33:00,96.5,66.7,29.87,SE,136,12.0,12.0,38,0.00,CLR,,0.00,WeatherDisplay:10.37,2013-08-03 21:33:00,
2013-08-03 16:38:00,96.4,66.7,29.87,SE,137,11.0,11.0,38,0.00,CLR,,0.00,WeatherDisplay:10.37,2013-08-03 21:38:00,
2013-08-03 16:43:00,96.5,66.7,29.87,SE,137,11.5,11.5,38,0.00,CLR,,0.00,WeatherDisplay:10.37,2013-08-03 21:43:00,
2013-08-03 16:48:00,96.7,67.7,29.86,South,179,6.9,6.9,39,0.00,CLR,,0.00,WeatherDisplay:10.37,2013-08-03 21:48:00,
2013-08-03 16:53:00,96.9,66.3,29.86,SSE,163,13.8,13.8,37,0.00,CLR,,0.00,WeatherDisplay:10.37,2013-08-03 21:53:00,
2013-08-03 16:58:00,96.9,67.1,29.86,SSW,192,13.8,13.8,38,0.00,CLR,,0.00,WeatherDisplay:10.37,2013-08-03 21:58:00,
2013-08-03 17:03:00,96.9,67.1,29.86,SSE,167,5.8,5.8,38,0.00,CLR,,0.00,WeatherDisplay:10.37,2013-08-03 22:03:00,
2013-08-03 17:08:00,97.0,67.2,29.86,South,180,14.0,14.0,38,0.00,CLR,,0.00,WeatherDisplay:10.37,2013-08-03 22:08:00,
2013-08-03 17:13:00,96.7,66.9,29.86,South,177,11.5,11.5,38,0.00,CLR,,0.00,WeatherDisplay:10.37,2013-08-03 22:13:00,
2013-08-03 17:18:00,96.6,66.8,29.86,South,173,15.0,15.0,38,0.00,CLR,,0.00,WeatherDisplay:10.37,2013-08-03 22:18:00,
2013-08-03 17:23:00,96.5,66.7,29.86,SSE,165,10.4,10.4,38,0.00,CLR,,0.00,WeatherDisplay:10.37,2013-08-03 22:23:00,
2013-08-03 17:28:00,96.9,67.8,29.86,SE,140,13.0,13.0,39,0.00,CLR,,0.00,WeatherDisplay:10.37,2013-08-03 22:28:00,
2013-08-03 17:33:00,97.3,67.4,29.86,SE,130,10.4,10.4,38,0.00,CLR,,0.00,WeatherDisplay:10.37,2013-08-03 22:33:00,
2013-08-03 17:38:00,97.6,66.9,29.86,SSE,165,6.9,6.9,37,0.00,CLR,,0.00,WeatherDisplay:10.37,2013-08-03 22:38:00,
2013-08-03 17:43:00,97.6,66.9,29.86,SE,126,9.0,9.0,37,0.00,CLR,,0.00,WeatherDisplay:10.37,2013-08-03 22:43:00,
2013-08-03 17:48:00,97.2,67.4,29.86,SE,129,5.0,5.0,38,0.00,CLR,,0.00,WeatherDisplay:10.37,2013-08-03 22:48:00,
2013-08-03 17:53:00,96.8,67.0,29.86,SE,136,5.8,5.8,38,0.00,CLR,,0.00,WeatherDisplay:10.37,2013-08-03 22:53:00,
2013-08-03 17:58:00,96.7,66.9,29.86,South,172,6.9,6.9,38,0.00,CLR,,0.00,WeatherDisplay:10.37,2013-08-03 22:58:00,
2013-08-03 18:03:00,96.3,66.6,29.86,SE,145,11.5,11.5,38,0.00,CLR,,0.00,WeatherDisplay:10.37,2013-08-03 23:03:00,
2013-08-03 18:08:00,96.0,67.0,29.86,SSE,161,11.5,11.5,39,0.00,CLR,,0.00,WeatherDisplay:10.37,2013-08-03 23:08:00,
2013-08-03 18:13:00,95.6,66.7,29.86,SSE,148,12.0,12.0,39,0.00,CLR,,0.00,WeatherDisplay:10.37,2013-08-03 23:13:00,
2013-08-03 18:18:00,95.3,66.4,29.86,SSE,149,9.2,9.2,39,0.00,CLR,,0.00,WeatherDisplay:10.37,2013-08-03 23:18:00,
2013-08-03 18:23:00,95.3,66.4,29.86,SSE,166,8.1,8.1,39,0.00,CLR,,0.00,WeatherDisplay:10.37,2013-08-03 23:23:00,
2013-08-03 18:28:00,95.6,66.7,29.86,South,180,10.4,10.4,39,0.00,CLR,,0.00,WeatherDisplay:10.37,2013-08-03 23:28:00,
2013-08-03 18:33:00,95.6,66.7,29.85,South,169,6.9,6.9,39,0.00,CLR,,0.00,WeatherDisplay:10.37,2013-08-03 23:33:00,
2013-08-03 18:38:00,95.5,66.6,29.85,South,176,3.5,3.5,39,0.00,CLR,,0.00,WeatherDisplay:10.37,2013-08-03 23:38:00,
2013-08-03 18:43:00,95.6,66.7,29.85,ESE,122,12.7,12.7,39,0.00,CLR,,0.00,WeatherDisplay:10.37,2013-08-03 23:43:00,
2013-08-03 18:48:00,95.6,66.7,29.85,SE,130,3.5,3.5,39,0.00,CLR,,0.00,WeatherDisplay:10.37,2013-08-03 23:48:00,
2013-08-03 18:53:00,95.5,65.9,29.85,SE,140,5.8,5.8,38,0.00,CLR,,0.00,WeatherDisplay:10.37,2013-08-03 23:53:00,
2013-08-03 18:58:00,95.5,65.9,29.85,SE,130,10.0,10.0,38,0.00,CLR,,0.00,WeatherDisplay:10.37,2013-08-03 23:58:00,
2013-08-03 19:03:00,95.4,65.8,29.85,SE,140,10.4,10.4,38,0.00,CLR,,0.00,WeatherDisplay:10.37,2013-08-04 00:03:00,
2013-08-03 19:08:00,95.3,65.7,29.85,SE,146,9.2,9.2,38,0.00,CLR,,0.00,WeatherDisplay:10.37,2013-08-04 00:08:00,
2013-08-03 19:13:00,95.3,65.7,29.85,SSE,164,8.0,8.0,38,0.00,CLR,,0.00,WeatherDisplay:10.37,2013-08-04 00:13:00,
2013-08-03 19:18:00,95.3,65.7,29.85,SSE,166,7.0,7.0,38,0.00,CLR,,0.00,WeatherDisplay:10.37,2013-08-04 00:18:00,
2013-08-03 19:23:00,95.2,64.8,29.85,South,169,9.2,9.2,37,0.00,CLR,,0.00,WeatherDisplay:10.37,2013-08-04 00:23:00,
2013-08-03 19:28:00,95.2,64.8,29.86,SSE,150,7.0,7.0,37,0.00,CLR,,0.00,WeatherDisplay:10.37,2013-08-04 00:28:00,
2013-08-03 19:33:00,95.1,65.5,29.86,SSE,159,3.5,3.5,38,0.00,CLR,,0.00,WeatherDisplay:10.37,2013-08-04 00:33:00,
2013-08-03 19:38:00,95.1,65.5,29.86,SSE,158,2.3,2.3,38,0.00,CLR,,0.00,WeatherDisplay:10.37,2013-08-04 00:38:00,
2013-08-03 19:43:00,95.0,65.4,29.86,SSE,157,5.8,5.8,38,0.00,CLR,,0.00,WeatherDisplay:10.37,2013-08-04 00:43:00,
2013-08-03 19:48:00,94.8,65.2,29.86,SSE,157,3.5,3.5,38,0.00,CLR,,0.00,WeatherDisplay:10.37,2013-08-04 00:48:00,
2013-08-03 19:53:00,94.7,65.9,29.86,SSE,156,4.6,4.6,39,0.00,CLR,,0.00,WeatherDisplay:10.37,2013-08-04 00:53:00,
2013-08-03 19:58:00,94.5,66.4,29.86,SSE,156,3.5,3.5,40,0.00,CLR,,0.00,WeatherDisplay:10.37,2013-08-04 00:58:00,
2013-08-03 20:03:00,94.4,66.4,29.86,SSE,156,3.5,3.5,40,0.00,CLR,,0.00,WeatherDisplay:10.37,2013-08-04 01:03:00,
2013-08-03 20:08:00,94.1,66.8,29.86,SSE,157,1.2,1.2,41,0.00,CLR,,0.00,WeatherDisplay:10.37,2013-08-04 01:08:00,
2013-08-03 20:13:00,94.0,66.7,29.86,SSE,157,1.2,1.2,41,0.00,CLR,,0.00,WeatherDisplay:10.37,2013-08-04 01:13:00,
2013-08-03 20:18:00,93.7,67.1,29.86,SSE,155,3.5,3.5,42,0.00,CLR,,0.00,WeatherDisplay:10.37,2013-08-04 01:18:00,
2013-08-03 20:23:00,93.3,66.8,29.86,SSE,154,4.0,4.0,42,0.00,CLR,,0.00,WeatherDisplay:10.37,2013-08-04 01:23:00,
2013-08-03 20:28:00,93.0,67.2,29.86,SSE,153,4.0,4.0,43,0.00,CLR,,0.00,WeatherDisplay:10.37,2013-08-04 01:28:00,
2013-08-03 20:33:00,92.6,67.5,29.87,SSE,152,4.6,4.6,44,0.00,CLR,,0.00,WeatherDisplay:10.37,2013-08-04 01:33:00,
2013-08-03 20:38:00,92.1,68.3,29.87,SE,143,11.5,11.5,46,0.00,CLR,,0.00,WeatherDisplay:10.37,2013-08-04 01:38:00,
2013-08-03 20:43:00,91.8,68.7,29.87,SE,137,13.8,13.8,47,0.00,CLR,,0.00,WeatherDisplay:10.37,2013-08-04 01:43:00,
2013-08-03 20:48:00,91.7,68.6,29.87,SE,144,6.9,6.9,47,0.00,CLR,,0.00,WeatherDisplay:10.37,2013-08-04 01:48:00,
2013-08-03 20:53:00,91.4,69.0,29.87,ESE,123,15.0,15.0,48,0.00,CLR,,0.00,WeatherDisplay:10.37,2013-08-04 01:53:00,
2013-08-03 20:58:00,91.2,69.4,29.87,SE,144,13.8,13.8,49,0.00,CLR,,0.00,WeatherDisplay:10.37,2013-08-04 01:58:00,
2013-08-03 21:03:00,90.9,69.7,29.88,SE,142,11.5,11.5,50,0.00,CLR,,0.00,WeatherDisplay:10.37,2013-08-04 02:03:00,
2013-08-03 21:08:00,90.6,70.0,29.88,SSE,161,18.4,18.4,51,0.00,CLR,,0.00,WeatherDisplay:10.37,2013-08-04 02:08:00,
2013-08-03 21:13:00,90.3,70.3,29.88,SE,138,11.5,11.5,52,0.00,CLR,,0.00,WeatherDisplay:10.37,2013-08-04 02:13:00,
2013-08-03 21:18:00,90.1,70.1,29.89,SE,128,12.7,12.7,52,0.00,CLR,,0.00,WeatherDisplay:10.37,2013-08-04 02:18:00,
2013-08-03 21:23:00,89.6,70.2,29.89,SSE,163,16.1,16.1,53,0.00,CLR,,0.00,WeatherDisplay:10.37,2013-08-04 02:23:00,
2013-08-03 21:28:00,89.3,70.5,29.89,South,175,12.7,12.7,54,0.00,CLR,,0.00,WeatherDisplay:10.37,2013-08-04 02:28:00,
2013-08-03 21:33:00,88.9,70.6,29.89,SE,141,13.8,13.8,55,0.00,CLR,,0.00,WeatherDisplay:10.37,2013-08-04 02:33:00,
2013-08-03 21:38:00,88.5,70.8,29.89,South,173,17.3,17.3,56,0.00,CLR,,0.00,WeatherDisplay:10.37,2013-08-04 02:38:00,
2013-08-03 21:43:00,88.2,71.0,29.90,SE,143,13.8,13.8,57,0.00,CLR,,0.00,WeatherDisplay:10.37,2013-08-04 02:43:00,
2013-08-03 21:48:00,87.9,70.8,29.90,SE,146,13.0,13.0,57,0.00,CLR,,0.00,WeatherDisplay:10.37,2013-08-04 02:48:00,
2013-08-03 21:53:00,87.5,70.4,29.91,SE,136,13.8,13.8,57,0.00,CLR,,0.00,WeatherDisplay:10.37,2013-08-04 02:53:00,
2013-08-03 21:58:00,87.2,70.6,29.91,SSE,167,16.1,16.1,58,0.00,CLR,,0.00,WeatherDisplay:10.37,2013-08-04 02:58:00,
2013-08-03 22:03:00,86.9,70.8,29.91,ESE,115,15.0,15.0,59,0.00,CLR,,0.00,WeatherDisplay:10.37,2013-08-04 03:03:00,
2013-08-03 22:08:00,86.6,70.6,29.91,SE,144,13.8,13.8,59,0.00,CLR,,0.00,WeatherDisplay:10.37,2013-08-04 03:08:00,
2013-08-03 22:13:00,86.5,71.0,29.92,SSE,163,18.4,18.4,60,0.00,CLR,,0.00,WeatherDisplay:10.37,2013-08-04 03:13:00,
2013-08-03 22:18:00,86.1,71.1,29.92,SSE,148,11.5,11.5,61,0.00,CLR,,0.00,WeatherDisplay:10.37,2013-08-04 03:18:00,
2013-08-03 22:23:00,85.9,70.9,29.92,SE,137,10.4,10.4,61,0.00,CLR,,0.00,WeatherDisplay:10.37,2013-08-04 03:23:00,
2013-08-03 22:28:00,85.6,71.1,29.93,South,179,11.0,11.0,62,0.00,CLR,,0.00,WeatherDisplay:10.37,2013-08-04 03:28:00,
2013-08-03 22:33:00,85.4,71.4,29.93,SSE,167,19.6,19.6,63,0.00,CLR,,0.00,WeatherDisplay:10.37,2013-08-04 03:33:00,
2013-08-03 22:38:00,85.2,71.2,29.93,SSE,153,10.0,10.0,63,0.00,CLR,,0.00,WeatherDisplay:10.37,2013-08-04 03:38:00,
2013-08-03 22:43:00,85.0,71.5,29.94,SSE,153,4.6,4.6,64,0.00,CLR,,0.00,WeatherDisplay:10.37,2013-08-04 03:43:00,
2013-08-03 22:48:00,84.8,71.3,29.94,SSE,168,13.8,13.8,64,0.00,CLR,,0.00,WeatherDisplay:10.37,2013-08-04 03:48:00,
2013-08-03 22:53:00,84.6,71.5,29.94,SSE,159,10.4,10.4,65,0.00,CLR,,0.00,WeatherDisplay:10.37,2013-08-04 03:53:00,
2013-08-03 22:58:00,84.3,71.2,29.94,SSE,157,11.5,11.5,65,0.00,CLR,,0.00,WeatherDisplay:10.37,2013-08-04 03:58:00,
2013-08-03 23:01:00,84.3,71.2,29.95,South,169,4.0,4.0,65,0.00,CLR,,0.00,WeatherDisplay:10.37,2013-08-04 04:01:00,
2013-08-03 23:02:00,84.2,71.2,29.95,SSE,159,10.4,10.4,65,0.00,CLR,,0.00,WeatherDisplay:10.37,2013-08-04 04:02:00,
2013-08-03 23:07:00,84.0,71.4,29.95,SSE,154,11.5,11.5,66,0.00,CLR,,0.00,WeatherDisplay:10.37,2013-08-04 04:07:00,
2013-08-03 23:12:00,83.8,71.7,29.95,SE,142,12.7,12.7,67,0.00,CLR,,0.00,WeatherDisplay:10.37,2013-08-04 04:12:00,
2013-08-03 23:17:00,83.6,71.5,29.95,SSE,168,13.8,13.8,67,0.00,CLR,,0.00,WeatherDisplay:10.37,2013-08-04 04:17:00,
2013-08-03 23:22:00,83.3,71.6,29.95,SSE,147,15.0,15.0,68,0.00,CLR,,0.00,WeatherDisplay:10.37,2013-08-04 04:22:00,
2013-08-03 23:27:00,83.1,71.4,29.95,SSE,157,12.0,12.0,68,0.00,CLR,,0.00,WeatherDisplay:10.37,2013-08-04 04:27:00,
2013-08-03 23:32:00,82.9,71.7,29.96,SE,138,6.9,6.9,69,0.00,CLR,,0.00,WeatherDisplay:10.37,2013-08-04 04:32:00,
2013-08-03 23:37:00,82.7,71.5,29.96,SE,138,11.5,11.5,69,0.00,CLR,,0.00,WeatherDisplay:10.37,2013-08-04 04:37:00,
2013-08-03 23:42:00,82.5,71.3,29.97,SSE,160,12.0,12.0,69,0.00,CLR,,0.00,WeatherDisplay:10.37,2013-08-04 04:42:00,
2013-08-03 23:47:00,82.3,71.1,29.97,SSE,148,5.0,5.0,69,0.00,CLR,,0.00,WeatherDisplay:10.37,2013-08-04 04:47:00,
2013-08-03 23:52:00,82.1,70.9,29.97,SSE,157,16.1,16.1,69,0.00,CLR,,0.00,WeatherDisplay:10.37,2013-08-04 04:52:00,
2013-08-03 23:57:00,82.0,70.8,29.97,SSE,167,6.0,6.0,69,0.00,CLR,,0.00,WeatherDisplay:10.37,2013-08-04 04:57:00,